[[{"header":{"parameterUnit":"m.s-1","parameterCategory":2,"la1":30.2991,"la2":30.254,"lo1":-89.0895,"lo2":-89.0444,"dy":0.0017,"dx":0.0017,"nx":28,"ny":28,"refTime":"2024-09-24T21:00:00:Z","depth":"0","parameterNumber":2,"parameterNumberName":"U-component_of_CURRENTS"},"data":[0,0,0,0,0,0,0,0,0,0,0,0,0,0,0,0,0,0,0,0,0,0,0,0,0,0,0,0,0,0,0,0,0,0,0,0,0,0,0,0,0,0,0,0,0,0,0,0,0,0,0,0,0,0,0,0,0,0,0.1838,0.1838,0,0.187,0.187,0.1871,0.1876,0.1876,0.1875,0.1875,0.1925,0.1927,0.1929,0,0,0,0,0,0,0,0,0,0,0,0,0,0.1795,0.1796,0.1837,0.1838,0.1838,0.187,0.187,0.1871,0.1876,0.1876,0.1875,0.1874,0.1925,0.1927,0.1929,0,0,0,0,0,0,0,0,0,0,0,0,0,0.1821,0.1796,0.1837,0.1843,0.1844,0.187,0.187,0.1871,0.1876,0.1876,0.1875,0.1874,0.1924,0.1927,0.1929,0.1959,0,0,0.1937,0.1938,0,0,0,0,0,0,0,0,0.1819,0.1823,0.1842,0.1843,0.1843,0.1867,0.1874,0.1901,0.1876,0.1866,0.1875,0.1874,0.1907,0.1911,0.1921,0.1961,0.1964,0.1938,0.1939,0.194,0.1941,0,0,0,0,0,0,0,0.1818,0.1821,0.1852,0.1842,0.1843,0.1849,0.1852,0.1879,0.1891,0.1867,0.1867,0.1868,0.1907,0.1918,0.1922,0.1964,0.1937,0.194,0.1941,0.1943,0.2071,0.2073,0,0,0,0,0,0,0.181,0.182,0.1851,0.1853,0.1827,0.185,0.1853,0.1861,0.1891,0.1894,0.1868,0.1868,0.1914,0.1919,0.1924,0.1988,0.194,0.1943,0.1944,0.2069,0.2072,0.2074,0,0,0,0,0,0,0.1809,0.1813,0.185,0.1835,0.184,0.1851,0.186,0.1862,0.1873,0.1891,0.1895,0.1876,0.1914,0.192,0.1962,0.1989,0.1944,0.1946,0.2067,0.207,0.2073,0.2099,0,0,0,0,0,0,0.1808,0.1813,0.1822,0.1835,0.184,0.1871,0.1861,0.1863,0.1874,0.1874,0.19,0.1904,0.1913,0.1958,0.1965,0.1992,0.1948,0.2065,0.2068,0.2072,0.2096,0.2103,0.2108,0,0,0,0,0,0.1807,0.1822,0.1823,0.1827,0.1851,0.1871,0.1876,0.1882,0.1875,0.1888,0.191,0.1903,0.1984,0.1962,0.1969,0.1997,0.2063,0.2067,0.2071,0.2094,0.2101,0.2108,0,0,0,0,0,0,0.1807,0.1825,0.1825,0.1845,0.1858,0.1871,0.1885,0.1885,0.1912,0.1914,0.1926,0.1932,0.1978,0.1989,0.1964,0.2047,0.2023,0.2029,0.2038,0.2045,0.2051,0.2024,0.1951,0,0,0,0,0,0.1812,0.183,0.1842,0.1859,0.1866,0.1875,0.1885,0.1889,0.191,0.192,0.1938,0.1967,0.2003,0.2023,0.2052,0.2098,0.2115,0.2123,0.2129,0.2134,0.2119,0.217,0.2178,0.2087,0.2087,0.2087,0,0,0.1813,0.1828,0.1836,0.186,0.1872,0.1892,0.1881,0.1899,0.1918,0.1923,0.1961,0.1986,0.2019,0.2071,0.2093,0.2083,0.2179,0.214,0.2143,0.2125,0.2175,0.2184,0.2191,0.209,0.2089,0.2089,0,0,0.1828,0.1842,0.1861,0.1877,0.1897,0.1907,0.1912,0.193,0.1942,0.1979,0.1994,0.2033,0.2081,0.2114,0.2137,0.2195,0.2206,0.221,0.2222,0.2272,0.2279,0.2286,0.2353,0.2365,0.2217,0.2217,0.2217,0,0.1829,0.1856,0.187,0.1893,0.1907,0.1914,0.1935,0.1954,0.1984,0.2001,0.1995,0.2076,0.2101,0.2168,0.2186,0.2207,0.2239,0.2189,0.2278,0.2285,0.2291,0.2357,0.237,0.2219,0.2219,0.2218,0.2218,0,0.1858,0.1879,0.1893,0.1926,0.1946,0.1966,0.1988,0.2012,0.2022,0.2038,0.2093,0.2131,0.2176,0.22,0.2207,0.2273,0.2286,0.2276,0.2253,0.2301,0.2369,0.2382,0.2221,0.2221,0.222,0.222,0,0,0.1849,0.1903,0.1905,0.1924,0.1964,0.198,0.202,0.2055,0.2083,0.2111,0.2152,0.2207,0.2215,0.224,0.2266,0.2304,0.2387,0.2303,0.2305,0.2358,0.2515,0.2593,0.2614,0.2391,0.2392,0.2393,0.2557,0,0.1862,0.1909,0.1934,0.1974,0.1997,0.2023,0.2059,0.2093,0.2125,0.217,0.2203,0.2254,0.2237,0.2269,0.2302,0.2364,0.2416,0.2344,0.2469,0.2473,0.2526,0.263,0.2595,0.2743,0.2569,0.2571,0.2573,0,0.1873,0.1906,0.1948,0.1998,0.201,0.2036,0.2093,0.2127,0.2189,0.2218,0.2262,0.2289,0.2356,0.2331,0.2445,0.24,0.2454,0.2494,0.2501,0.2564,0.2574,0.2661,0.2772,0.2716,0.2593,0.2591,0.259,0,0.1853,0.1908,0.1943,0.1961,0.2023,0.2045,0.2076,0.2136,0.2178,0.2251,0.23,0.2358,0.2423,0.2468,0.2555,0.2503,0.2691,0.2636,0.2761,0.2767,0.2756,0.2759,0.281,0.2718,0.2718,0.2718,0.2717,0,0.1854,0.1878,0.1935,0.1954,0.1994,0.2036,0.2087,0.213,0.2206,0.2272,0.2319,0.2399,0.2458,0.2569,0.2601,0.2753,0.2741,0.2787,0.2822,0.2771,0.2774,0.2736,0.2685,0.2724,0.2722,0.2721,0.272,0,0.1828,0.1868,0.1905,0.1966,0.1986,0.2011,0.2089,0.2127,0.2209,0.2304,0.2335,0.2463,0.2623,0.2714,0.2842,0.2856,0.2909,0.3017,0.297,0.2997,0.3018,0.297,0.293,0.2839,0.3158,0.3161,0.3163,0,0.1823,0.184,0.1902,0.1921,0.1948,0.1996,0.2029,0.2113,0.2169,0.2347,0.2397,0.2592,0.2754,0.3001,0.3079,0.3215,0.3065,0.3225,0.3106,0.3048,0.3019,0.2841,0.2749,0.3114,0.3116,0.3117,0.3118,0,0.1809,0.1827,0.1861,0.1904,0.1937,0.198,0.2041,0.209,0.2208,0.2326,0.2516,0.2672,0.2955,0.311,0.3304,0.3346,0.3089,0.3263,0.3202,0.3002,0.2808,0.2729,0.2987,0.3132,0.3131,0.313,0.3129,0.3129,0.1791,0.1809,0.1855,0.189,0.1925,0.1966,0.1988,0.2081,0.22,0.2365,0.254,0.2769,0.3032,0.3324,0.3347,0.337,0.3251,0.3279,0.3235,0.3066,0.2936,0.3251,0.3434,0.3434,0.3434,0.3434,0.3435,0,0.178,0.1812,0.1841,0.1883,0.1899,0.1933,0.1999,0.2027,0.215,0.2357,0.2543,0.2868,0.3094,0.3254,0.3408,0.334,0.3124,0.3254,0.2961,0.2877,0.3187,0.3145,0.3273,0.3273,0.3273,0.3273,0.3273,0.3273,0.1782,0.1814,0.1833,0.1858,0.1875,0.1893,0.1917,0.1979,0.211,0.2334,0.2524,0.2701,0.3046,0.3333,0.336,0.3276,0.2979,0.2921,0.2828,0.3043,0.3038,0.3034,0.2982,0.3074,0.3073,0.2403,0.2398,0.2395]},{"header":{"parameterUnit":"m.s-1","parameterCategory":2,"la1":30.2991,"la2":30.254,"lo1":-89.0895,"lo2":-89.0444,"dy":0.0017,"dx":0.0017,"nx":28,"ny":28,"refTime":"2024-09-24T21:00:00:Z","depth":"0","parameterNumber":3,"parameterNumberName":"V-component_of_CURRENTS"},"data":[0,0,0,0,0,0,0,0,0,0,0,0,0,0,0,0,0,0,0,0,0,0,0,0,0,0,0,0,0,0,0,0,0,0,0,0,0,0,0,0,0,0,0,0,0,0,0,0,0,0,0,0,0,0,0,0,0,0,-0.0717,-0.0717,0,-0.0745,-0.0746,-0.0746,-0.0819,-0.082,-0.0821,-0.0822,-0.1022,-0.1027,-0.1031,0,0,0,0,0,0,0,0,0,0,0,0,0,-0.0753,-0.0752,-0.0717,-0.0717,-0.0717,-0.0745,-0.0746,-0.0747,-0.0819,-0.082,-0.0821,-0.0822,-0.1021,-0.1026,-0.1032,0,0,0,0,0,0,0,0,0,0,0,0,0,-0.0761,-0.0752,-0.0717,-0.0751,-0.0754,-0.0744,-0.0746,-0.0747,-0.0818,-0.082,-0.0821,-0.0822,-0.1019,-0.1026,-0.1032,-0.1047,0,0,-0.1053,-0.1056,0,0,0,0,0,0,0,0,-0.0761,-0.0761,-0.0746,-0.0748,-0.0751,-0.0774,-0.0831,-0.0853,-0.0818,-0.0801,-0.0822,-0.0823,-0.095,-0.0962,-0.0972,-0.1056,-0.1065,-0.1054,-0.1058,-0.1061,-0.1063,0,0,0,0,0,0,0,-0.076,-0.076,-0.0735,-0.0746,-0.0749,-0.0772,-0.0776,-0.0836,-0.0876,-0.0803,-0.0806,-0.0798,-0.0954,-0.0965,-0.0978,-0.1068,-0.1053,-0.1059,-0.1064,-0.1066,-0.1178,-0.1177,0,0,0,0,0,0,-0.0739,-0.0759,-0.0734,-0.0736,-0.0751,-0.077,-0.0774,-0.0771,-0.0872,-0.0885,-0.0797,-0.0801,-0.0953,-0.097,-0.0985,-0.0986,-0.1061,-0.1067,-0.1071,-0.1179,-0.1178,-0.1176,0,0,0,0,0,0,-0.074,-0.0737,-0.0733,-0.0742,-0.0743,-0.0767,-0.0764,-0.0771,-0.0778,-0.0864,-0.0882,-0.0796,-0.0955,-0.0976,-0.1023,-0.0996,-0.107,-0.1076,-0.118,-0.1178,-0.1177,-0.1004,0,0,0,0,0,0,-0.0741,-0.0737,-0.0735,-0.0741,-0.0741,-0.0711,-0.0762,-0.077,-0.0768,-0.0774,-0.0869,-0.0889,-0.0957,-0.1012,-0.103,-0.1007,-0.1081,-0.1182,-0.1179,-0.1178,-0.1011,-0.0997,-0.0985,0,0,0,0,0,-0.0742,-0.0727,-0.0735,-0.0732,-0.0735,-0.0709,-0.0711,-0.0739,-0.0766,-0.0755,-0.082,-0.0886,-0.1012,-0.1016,-0.1037,-0.1016,-0.1183,-0.118,-0.1178,-0.1017,-0.1,-0.0985,0,0,0,0,0,0,-0.0739,-0.0732,-0.0742,-0.0725,-0.0709,-0.0718,-0.0713,-0.0726,-0.0765,-0.0782,-0.0872,-0.0895,-0.0929,-0.0995,-0.0998,-0.1043,-0.1109,-0.111,-0.098,-0.0964,-0.0951,-0.093,-0.1087,0,0,0,0,0,-0.0734,-0.0725,-0.0712,-0.0697,-0.0687,-0.0698,-0.0694,-0.0703,-0.073,-0.0748,-0.0805,-0.0876,-0.0934,-0.0966,-0.1028,-0.105,-0.1095,-0.1051,-0.1038,-0.1026,-0.1023,-0.1055,-0.1043,-0.1168,-0.1168,-0.1168,0,0,-0.0726,-0.0721,-0.0716,-0.0695,-0.0694,-0.0664,-0.0701,-0.0679,-0.0659,-0.0767,-0.077,-0.0834,-0.093,-0.0952,-0.0974,-0.1004,-0.1008,-0.1023,-0.1011,-0.1016,-0.1051,-0.1039,-0.1028,-0.1167,-0.1167,-0.1167,0,0,-0.0691,-0.07,-0.0675,-0.0658,-0.0635,-0.0635,-0.062,-0.0614,-0.0619,-0.0619,-0.0695,-0.073,-0.0813,-0.0861,-0.0904,-0.0856,-0.0937,-0.0883,-0.0796,-0.0826,-0.0815,-0.0807,-0.0814,-0.0808,-0.0874,-0.0873,-0.0873,0,-0.0678,-0.0655,-0.066,-0.0626,-0.061,-0.0615,-0.0577,-0.057,-0.0578,-0.0585,-0.0602,-0.0701,-0.0766,-0.0805,-0.078,-0.0823,-0.0852,-0.0844,-0.0805,-0.0798,-0.0793,-0.0803,-0.0798,-0.0865,-0.0866,-0.0867,-0.0867,0,-0.0622,-0.0604,-0.0584,-0.055,-0.0529,-0.0496,-0.0478,-0.0462,-0.0468,-0.0475,-0.0497,-0.0563,-0.063,-0.064,-0.0694,-0.0689,-0.0725,-0.0782,-0.0837,-0.0769,-0.0785,-0.0783,-0.0852,-0.0855,-0.0858,-0.086,0,0,-0.0573,-0.0553,-0.0541,-0.0528,-0.0491,-0.0466,-0.0425,-0.04,-0.0386,-0.0385,-0.0378,-0.0431,-0.047,-0.052,-0.0583,-0.0589,-0.0547,-0.0652,-0.0657,-0.0642,-0.0594,-0.0573,-0.057,-0.0598,-0.0597,-0.0597,-0.0608,0,-0.0523,-0.0473,-0.0466,-0.0409,-0.0383,-0.0378,-0.0341,-0.0323,-0.032,-0.031,-0.0355,-0.0382,-0.0426,-0.0453,-0.0459,-0.0545,-0.054,-0.0538,-0.0679,-0.0683,-0.0659,-0.0567,-0.0534,-0.0538,-0.0607,-0.0607,-0.0607,0,-0.0455,-0.0439,-0.0391,-0.0363,-0.0348,-0.0313,-0.0279,-0.0246,-0.0238,-0.0239,-0.0259,-0.0307,-0.0325,-0.0368,-0.0436,-0.0435,-0.0493,-0.054,-0.0543,-0.0588,-0.0659,-0.0628,-0.0533,-0.0702,-0.0605,-0.0605,-0.0605,0,-0.0426,-0.0377,-0.0353,-0.0339,-0.0303,-0.0282,-0.0258,-0.0233,-0.0196,-0.0205,-0.0181,-0.0237,-0.0247,-0.0326,-0.0399,-0.0429,-0.0461,-0.0533,-0.0561,-0.0561,-0.0594,-0.0596,-0.0668,-0.0567,-0.0567,-0.0567,-0.0567,0,-0.0377,-0.0348,-0.0342,-0.0325,-0.0279,-0.0263,-0.0207,-0.0193,-0.0154,-0.0081,-0.0151,-0.0099,-0.0234,-0.0265,-0.0363,-0.0429,-0.0438,-0.0519,-0.0555,-0.0529,-0.0526,-0.0729,-0.0845,-0.0567,-0.0567,-0.0567,-0.0567,0,-0.0342,-0.0342,-0.0307,-0.0282,-0.0267,-0.0234,-0.0159,-0.0106,-0.0088,0.0009,0.0015,0.0005,-0.0018,-0.0138,-0.0253,-0.0363,-0.054,-0.048,-0.0421,-0.0448,-0.0648,-0.0755,-0.0877,-0.0965,-0.0525,-0.0524,-0.0524,0,-0.0318,-0.0306,-0.0278,-0.0239,-0.0224,-0.0171,-0.0111,-0.0078,0.0007,0.0106,0.0179,0.0168,0.0246,0.0081,-0.0132,-0.0293,-0.0479,-0.0418,-0.0472,-0.0624,-0.0771,-0.0851,-0.0923,-0.0442,-0.0441,-0.044,-0.0439,0,-0.027,-0.0272,-0.0246,-0.017,-0.0112,-0.0034,0.0062,0.0144,0.0234,0.0344,0.0521,0.0584,0.0435,0.0312,0.0035,-0.0121,-0.0544,-0.0404,-0.059,-0.0718,-0.0785,-0.0897,-0.0465,-0.0431,-0.0432,-0.0432,-0.0433,-0.0433,-0.0221,-0.0191,-0.0145,-0.0065,0.001,0.0153,0.0257,0.0401,0.0584,0.0815,0.0821,0.0987,0.0693,0.0348,0.0079,-0.043,-0.046,-0.0582,-0.0697,-0.0762,-0.085,-0.0375,-0.0369,-0.037,-0.037,-0.037,-0.0371,0,-0.0117,-0.0082,-0.0019,0.0098,0.022,0.0234,0.0424,0.0569,0.0845,0.1052,0.1242,0.1239,0.0864,0.0396,-0.0269,-0.064,-0.0827,-0.0874,-0.1004,-0.1066,-0.066,-0.066,-0.0683,-0.0682,-0.0682,-0.0682,-0.0682,-0.0682,-0.0053,0.0038,0.0067,0.0286,0.0378,0.0567,0.0695,0.0913,0.1102,0.1432,0.1579,0.1641,0.1296,0.0086,-0.0762,-0.0987,-0.13,-0.1338,-0.1512,-0.1265,-0.1248,-0.1232,-0.1258,-0.1406,-0.1407,-0.1862,-0.1866,-0.187]}],[{"header":{"parameterUnit":"m.s-1","parameterCategory":2,"la1":30.2991,"la2":30.254,"lo1":-89.0895,"lo2":-89.0444,"dy":0.0017,"dx":0.0017,"nx":28,"ny":28,"refTime":"2024-09-24T21:00:00:Z","depth":"2","parameterNumber":2,"parameterNumberName":"U-component_of_CURRENTS"},"data":[0,0,0,0,0,0,0,0,0,0,0,0,0,0,0,0,0,0,0,0,0,0,0,0,0,0,0,0,0,0,0,0,0,0,0,0,0,0,0,0,0,0,0,0,0,0,0,0,0,0,0,0,0,0,0,0,0,0,0.1653,0.1654,0,0.171,0.1711,0.1712,0.1733,0.1732,0.1732,0.1731,0.1715,0.1715,0.1716,0,0,0,0,0,0,0,0,0,0,0,0,0,0.1613,0.1613,0.1653,0.1654,0.1654,0.171,0.1711,0.1713,0.1733,0.1732,0.1732,0.1731,0.1715,0.1715,0.1716,0,0,0,0,0,0,0,0,0,0,0,0,0,0.165,0.1614,0.1653,0.1668,0.1669,0.171,0.1711,0.1713,0.1733,0.1732,0.1732,0.1731,0.1715,0.1715,0.1716,0.1735,0,0,0.1716,0.1716,0,0,0,0,0,0,0,0,0.1648,0.1652,0.1665,0.1667,0.1668,0.171,0.1691,0.1715,0.1734,0.1714,0.1731,0.173,0.1704,0.1705,0.1726,0.1735,0.1734,0.1716,0.1716,0.1716,0.1717,0,0,0,0,0,0,0,0.1645,0.165,0.1681,0.1665,0.1667,0.1688,0.1693,0.1697,0.1716,0.1715,0.1716,0.1715,0.1705,0.1726,0.1725,0.1734,0.1716,0.1716,0.1717,0.1717,0.1838,0.1841,0,0,0,0,0,0,0.1628,0.1648,0.1679,0.1682,0.1651,0.1689,0.1694,0.1701,0.1717,0.1718,0.1716,0.1716,0.1726,0.1725,0.1724,0.1785,0.1716,0.1717,0.1717,0.1835,0.1839,0.1842,0,0,0,0,0,0,0.1627,0.163,0.1676,0.1662,0.1668,0.169,0.1698,0.1703,0.1729,0.1718,0.1718,0.1737,0.1725,0.1724,0.1756,0.1783,0.1717,0.1717,0.1832,0.1837,0.1841,0.1883,0,0,0,0,0,0,0.1626,0.163,0.1642,0.1661,0.1668,0.17,0.1699,0.1704,0.1727,0.1728,0.1736,0.1733,0.1724,0.1756,0.1757,0.1782,0.1717,0.1828,0.1834,0.1839,0.1877,0.1888,0.1897,0,0,0,0,0,0.1624,0.1638,0.1643,0.1647,0.168,0.17,0.1707,0.1722,0.1729,0.1743,0.1767,0.1734,0.1794,0.1759,0.1758,0.1784,0.1825,0.1832,0.1839,0.1873,0.1886,0.1897,0,0,0,0,0,0,0.1626,0.1642,0.1647,0.1666,0.168,0.1701,0.1723,0.1731,0.1765,0.1768,0.1765,0.1765,0.1806,0.1802,0.1764,0.1845,0.1807,0.1815,0.1834,0.1846,0.1856,0.1817,0.1717,0,0,0,0,0,0.1632,0.1647,0.1661,0.1676,0.1689,0.1711,0.1726,0.173,0.1754,0.1768,0.1779,0.1804,0.1837,0.1844,0.1865,0.19,0.1897,0.1925,0.1935,0.1943,0.1917,0.1952,0.1962,0.1865,0.1865,0.1865,0,0,0.1635,0.1646,0.1655,0.1677,0.1698,0.1717,0.172,0.174,0.1758,0.1759,0.1804,0.1833,0.1857,0.1905,0.1923,0.1899,0.1981,0.1952,0.1958,0.1927,0.196,0.1969,0.1977,0.187,0.1869,0.1869,0,0,0.1643,0.1664,0.1679,0.1691,0.1711,0.173,0.1736,0.1766,0.1786,0.1825,0.1848,0.1895,0.1932,0.1962,0.198,0.206,0.2035,0.2079,0.2087,0.2124,0.213,0.2136,0.2179,0.2188,0.208,0.2081,0.2081,0,0.1648,0.1665,0.1687,0.1699,0.1714,0.1736,0.1754,0.178,0.1815,0.1837,0.1839,0.1936,0.1957,0.2019,0.2056,0.2076,0.2093,0.2032,0.2131,0.2137,0.2141,0.2184,0.2193,0.2083,0.2083,0.2083,0.2083,0,0.1663,0.1676,0.1689,0.1716,0.1738,0.1755,0.1784,0.1815,0.1846,0.1869,0.1935,0.1981,0.203,0.2066,0.208,0.2143,0.2146,0.2139,0.2086,0.2153,0.2196,0.2204,0.2088,0.2087,0.2086,0.2085,0,0,0.1667,0.1697,0.1697,0.171,0.1747,0.1763,0.1805,0.185,0.189,0.1922,0.1973,0.2046,0.2065,0.2089,0.2127,0.216,0.2235,0.2162,0.2163,0.2179,0.2323,0.232,0.233,0.2242,0.2243,0.2244,0.235,0,0.1674,0.1695,0.1713,0.1739,0.1759,0.1791,0.1833,0.1871,0.1922,0.1978,0.2015,0.2085,0.2076,0.2126,0.2149,0.223,0.2255,0.2207,0.2277,0.2279,0.2246,0.2338,0.2175,0.2255,0.2359,0.236,0.2361,0,0.1681,0.1693,0.1723,0.1756,0.1771,0.1793,0.1871,0.1906,0.1979,0.2023,0.2069,0.2109,0.2181,0.2161,0.2262,0.2234,0.2265,0.2306,0.2311,0.2284,0.2291,0.2202,0.2266,0.2375,0.2374,0.2373,0.2372,0,0.1674,0.1697,0.1725,0.1734,0.1783,0.1808,0.184,0.1918,0.197,0.2057,0.2118,0.2173,0.2246,0.227,0.2352,0.2317,0.2457,0.2423,0.2437,0.2439,0.2298,0.2284,0.2457,0.2457,0.2457,0.2457,0.2456,0,0.1679,0.1687,0.172,0.1731,0.1765,0.1803,0.1865,0.1912,0.2002,0.2072,0.2135,0.2213,0.2277,0.2362,0.238,0.2457,0.2481,0.2446,0.2466,0.2316,0.2304,0.2391,0.2382,0.2461,0.246,0.2459,0.2458,0,0.1668,0.1689,0.1706,0.1748,0.1762,0.1783,0.1859,0.1912,0.201,0.2107,0.2144,0.2278,0.2404,0.2467,0.2564,0.2532,0.2587,0.2594,0.2423,0.2421,0.2529,0.2522,0.2613,0.2614,0.2614,0.2615,0.2615,0,0.1661,0.1674,0.1707,0.1716,0.1733,0.1773,0.1811,0.1898,0.1959,0.2143,0.2185,0.2358,0.2452,0.2607,0.2616,0.2662,0.2659,0.2507,0.2394,0.2535,0.2546,0.2537,0.2529,0.2243,0.2241,0.2239,0.2237,0,0.1642,0.1659,0.1685,0.171,0.1735,0.1773,0.1827,0.1868,0.1991,0.2095,0.2243,0.2342,0.2502,0.25,0.2577,0.2558,0.2486,0.2466,0.2673,0.2231,0.2195,0.2204,0.2206,0.2218,0.222,0.2221,0.2222,0.2223,0.1628,0.1642,0.1685,0.1709,0.1731,0.1771,0.1803,0.1866,0.1961,0.207,0.2188,0.2273,0.2335,0.2381,0.2341,0.2312,0.2454,0.2323,0.2326,0.2331,0.2271,0.2239,0.2259,0.2261,0.2263,0.2265,0.2266,0,0.1625,0.1659,0.1678,0.1712,0.1731,0.176,0.1821,0.1822,0.1894,0.1979,0.2072,0.1969,0.2021,0.2077,0.2022,0.2033,0.196,0.194,0.1826,0.185,0.187,0.178,0.1641,0.1638,0.1635,0.1633,0,0,0.1628,0.1666,0.1686,0.1713,0.1734,0.1766,0.1797,0.1761,0.1788,0.1755,0.1777,0.1928,0.2039,0.1803,0.1799,0.1712,0.1748,0.1648,0.2165,0.2057,0.2073,0.2128,0.2024,0,0,0,0,0]},{"header":{"parameterUnit":"m.s-1","parameterCategory":2,"la1":30.2991,"la2":30.254,"lo1":-89.0895,"lo2":-89.0444,"dy":0.0017,"dx":0.0017,"nx":28,"ny":28,"refTime":"2024-09-24T21:00:00:Z","depth":"2","parameterNumber":3,"parameterNumberName":"V-component_of_CURRENTS"},"data":[0,0,0,0,0,0,0,0,0,0,0,0,0,0,0,0,0,0,0,0,0,0,0,0,0,0,0,0,0,0,0,0,0,0,0,0,0,0,0,0,0,0,0,0,0,0,0,0,0,0,0,0,0,0,0,0,0,0,-0.0262,-0.0262,0,-0.0301,-0.0302,-0.0304,-0.0389,-0.0389,-0.039,-0.039,-0.0383,-0.0383,-0.0382,0,0,0,0,0,0,0,0,0,0,0,0,0,-0.0315,-0.0315,-0.0262,-0.0262,-0.0261,-0.03,-0.0302,-0.0304,-0.0389,-0.0389,-0.039,-0.039,-0.0384,-0.0383,-0.0382,0,0,0,0,0,0,0,0,0,0,0,0,0,-0.033,-0.0315,-0.0263,-0.0297,-0.0299,-0.03,-0.0302,-0.0305,-0.0389,-0.0389,-0.039,-0.039,-0.0384,-0.0383,-0.0382,-0.0364,0,0,-0.038,-0.0379,0,0,0,0,0,0,0,0,-0.033,-0.033,-0.0293,-0.0294,-0.0297,-0.0328,-0.0318,-0.0317,-0.0388,-0.037,-0.039,-0.0391,-0.0351,-0.0353,-0.038,-0.0364,-0.0364,-0.0379,-0.0379,-0.0379,-0.0378,0,0,0,0,0,0,0,-0.0328,-0.0329,-0.0292,-0.0291,-0.0294,-0.0327,-0.0332,-0.032,-0.0367,-0.0372,-0.0374,-0.0355,-0.0354,-0.0381,-0.038,-0.0364,-0.0379,-0.0379,-0.0378,-0.0378,-0.0373,-0.0373,0,0,0,0,0,0,-0.0291,-0.0328,-0.0291,-0.0292,-0.0299,-0.0325,-0.033,-0.0329,-0.0368,-0.0371,-0.0355,-0.0359,-0.0382,-0.0381,-0.0379,-0.0368,-0.0379,-0.0378,-0.0377,-0.0372,-0.0373,-0.0373,0,0,0,0,0,0,-0.0292,-0.0288,-0.0289,-0.0298,-0.0299,-0.0321,-0.0321,-0.0329,-0.0361,-0.0353,-0.0358,-0.0376,-0.0382,-0.0381,-0.038,-0.0368,-0.0377,-0.0377,-0.0372,-0.0372,-0.0373,-0.0339,0,0,0,0,0,0,-0.0294,-0.0289,-0.0296,-0.0296,-0.0296,-0.0269,-0.0319,-0.0329,-0.034,-0.0347,-0.0372,-0.0372,-0.0382,-0.0381,-0.0379,-0.0367,-0.0376,-0.0371,-0.0372,-0.0373,-0.034,-0.0339,-0.0338,0,0,0,0,0,-0.0296,-0.0283,-0.0297,-0.0292,-0.0299,-0.0265,-0.0271,-0.0299,-0.034,-0.0337,-0.0374,-0.0372,-0.0385,-0.0381,-0.0378,-0.0365,-0.0371,-0.0372,-0.0373,-0.0341,-0.0339,-0.0338,0,0,0,0,0,0,-0.0302,-0.0288,-0.0304,-0.0288,-0.0269,-0.0274,-0.028,-0.0297,-0.0331,-0.0347,-0.037,-0.0372,-0.0368,-0.0374,-0.037,-0.037,-0.0379,-0.038,-0.0356,-0.0354,-0.0353,-0.0316,-0.0375,0,0,0,0,0,-0.0303,-0.0298,-0.0278,-0.0262,-0.0261,-0.0278,-0.0278,-0.0282,-0.0294,-0.0314,-0.0331,-0.0356,-0.037,-0.0368,-0.0375,-0.0365,-0.0375,-0.0359,-0.0358,-0.0357,-0.0328,-0.0361,-0.0359,-0.0376,-0.0376,-0.0376,0,0,-0.0298,-0.0287,-0.0286,-0.0264,-0.0273,-0.0247,-0.0285,-0.0265,-0.0249,-0.0301,-0.0312,-0.0344,-0.0368,-0.0368,-0.0366,-0.0369,-0.036,-0.0358,-0.0356,-0.0328,-0.0361,-0.036,-0.0358,-0.0376,-0.0376,-0.0376,0,0,-0.0259,-0.0282,-0.0262,-0.0243,-0.0219,-0.0226,-0.0215,-0.0217,-0.0235,-0.0229,-0.0279,-0.0305,-0.0315,-0.0338,-0.035,-0.0342,-0.0353,-0.035,-0.0307,-0.034,-0.0338,-0.0337,-0.0351,-0.0351,-0.0348,-0.0348,-0.0348,0,-0.0256,-0.023,-0.0245,-0.0209,-0.0192,-0.0213,-0.0177,-0.0186,-0.0184,-0.0193,-0.0219,-0.0272,-0.0298,-0.0308,-0.0317,-0.0335,-0.0352,-0.0309,-0.0336,-0.0335,-0.0334,-0.035,-0.035,-0.0346,-0.0347,-0.0347,-0.0347,0,-0.0194,-0.0177,-0.0161,-0.0137,-0.012,-0.0087,-0.0082,-0.0083,-0.0115,-0.0125,-0.0143,-0.0193,-0.0223,-0.0246,-0.0278,-0.0287,-0.0301,-0.0333,-0.0335,-0.033,-0.0347,-0.0348,-0.0344,-0.0345,-0.0345,-0.0346,0,0,-0.0169,-0.0131,-0.0123,-0.0104,-0.0081,-0.0052,-0.0034,-0.0021,-0.0021,-0.0039,-0.004,-0.0093,-0.0133,-0.015,-0.0202,-0.0232,-0.0258,-0.0274,-0.0277,-0.0276,-0.0317,-0.033,-0.0332,-0.0301,-0.03,-0.03,-0.0333,0,-0.0121,-0.0053,-0.0044,0.0018,0.0043,0.0035,0.0055,0.0066,0.0042,0.0037,-0.0013,-0.0037,-0.0092,-0.012,-0.0154,-0.0238,-0.0258,-0.0245,-0.033,-0.0331,-0.0334,-0.0333,-0.032,-0.0348,-0.0334,-0.0334,-0.0334,0,-0.0066,-0.0026,0.0029,0.0079,0.0088,0.0119,0.0128,0.0151,0.0139,0.012,0.0093,0.0048,0.0004,-0.005,-0.0149,-0.0141,-0.0211,-0.0271,-0.0275,-0.029,-0.0345,-0.0351,-0.0351,-0.0336,-0.0336,-0.0336,-0.0336,0,-0.005,0.0025,0.006,0.0081,0.0131,0.0149,0.0169,0.0167,0.0195,0.0166,0.0175,0.0111,0.0086,-0.0011,-0.0127,-0.0148,-0.0228,-0.0282,-0.0346,-0.0348,-0.0351,-0.0353,-0.0331,-0.0331,-0.033,-0.033,-0.033,0,-0.0013,0.0032,0.007,0.0097,0.0156,0.0174,0.0219,0.0225,0.025,0.0299,0.0217,0.0247,0.0094,0.0032,-0.009,-0.0209,-0.0202,-0.0319,-0.0354,-0.0341,-0.0341,-0.0341,-0.0342,-0.0332,-0.0331,-0.0331,-0.0331,0,0.0002,0.0024,0.0088,0.0141,0.0163,0.0205,0.0286,0.0326,0.0323,0.0388,0.039,0.0352,0.0261,0.0117,-0.0037,-0.0152,-0.0279,-0.0317,-0.0278,-0.0308,-0.0385,-0.0384,-0.0404,-0.0405,-0.0405,-0.0406,-0.0406,0,0.0022,0.0045,0.0111,0.0164,0.0193,0.0259,0.0314,0.0355,0.0421,0.047,0.0526,0.046,0.0445,0.0216,-0.0012,-0.0221,-0.0245,-0.0343,-0.0385,-0.0359,-0.0391,-0.0389,-0.0388,-0.0381,-0.0381,-0.0381,-0.0381,0,0.0073,0.0075,0.0113,0.0207,0.028,0.037,0.0461,0.054,0.0602,0.0664,0.0748,0.0733,0.051,0.0298,-0.0004,-0.0148,-0.032,-0.0352,-0.0336,-0.0363,-0.034,-0.0371,-0.0369,-0.0382,-0.0382,-0.0382,-0.0382,-0.0382,0.0101,0.0138,0.0179,0.027,0.0364,0.0492,0.059,0.0702,0.0833,0.0946,0.0913,0.0889,0.0614,0.0232,-0.0026,-0.0306,-0.0308,-0.0414,-0.0412,-0.0411,-0.0402,-0.0381,-0.0427,-0.0428,-0.0428,-0.0428,-0.0428,0,0.0161,0.0192,0.0266,0.0383,0.0496,0.0532,0.0704,0.0817,0.0998,0.1051,0.1099,0.0854,0.0594,0.0297,-0.0126,-0.0385,-0.0407,-0.0451,-0.043,-0.0428,-0.0426,-0.0417,-0.0448,-0.0448,-0.0449,-0.0449,0,0,0.0199,0.0265,0.0294,0.0479,0.0571,0.0753,0.0865,0.1038,0.1129,0.1188,0.1162,0.1053,0.0683,0.038,0.0024,-0.0207,-0.0252,-0.0249,-0.021,-0.0142,-0.0137,-0.0387,-0.0369,0,0,0,0,0]}],[{"header":{"parameterUnit":"m.s-1","parameterCategory":2,"la1":30.2991,"la2":30.254,"lo1":-89.0895,"lo2":-89.0444,"dy":0.0017,"dx":0.0017,"nx":28,"ny":28,"refTime":"2024-09-24T21:00:00:Z","depth":"4","parameterNumber":2,"parameterNumberName":"U-component_of_CURRENTS"},"data":[0,0,0,0,0,0,0,0,0,0,0,0,0,0,0,0,0,0,0,0,0,0,0,0,0,0,0,0,0,0,0,0,0,0,0,0,0,0,0,0,0,0,0,0,0,0,0,0,0,0,0,0,0,0,0,0,0,0,0.0655,0.0656,0,0.073,0.0731,0.0732,0.0769,0.0769,0.0769,0.0769,0.0769,0.0769,0.0769,0,0,0,0,0,0,0,0,0,0,0,0,0,0.0566,0.0568,0.0655,0.0656,0.0657,0.073,0.0731,0.0733,0.0769,0.0769,0.0769,0.0769,0.0769,0.0769,0.0769,0,0,0,0,0,0,0,0,0,0,0,0,0,0.0621,0.0568,0.0655,0.0682,0.0685,0.073,0.0731,0.0733,0.0769,0.0769,0.0769,0.0769,0.0769,0.0769,0.0769,0.0777,0,0,0.077,0.077,0,0,0,0,0,0,0,0,0.0618,0.0625,0.0678,0.0681,0.0684,0.0738,0.07,0.0743,0.077,0.074,0.0769,0.0768,0.0751,0.0752,0.0771,0.0777,0.0777,0.077,0.077,0.0771,0.0771,0,0,0,0,0,0,0,0.0614,0.0622,0.0687,0.0678,0.0682,0.0698,0.0706,0.0709,0.0746,0.0742,0.0745,0.075,0.0752,0.0771,0.0771,0.0777,0.077,0.0771,0.0771,0.0771,0.0833,0.0834,0,0,0,0,0,0,0.06,0.0618,0.0685,0.0689,0.0647,0.07,0.0709,0.0723,0.0748,0.0751,0.075,0.0751,0.0771,0.0771,0.0771,0.0848,0.0771,0.0771,0.0771,0.0832,0.0833,0.0835,0,0,0,0,0,0,0.0598,0.0606,0.0682,0.0653,0.0663,0.0701,0.0718,0.0724,0.0766,0.0754,0.0757,0.0786,0.077,0.0771,0.0799,0.0845,0.0771,0.0771,0.083,0.0832,0.0834,0.0958,0,0,0,0,0,0,0.0595,0.0605,0.0621,0.0652,0.0664,0.0727,0.0718,0.0726,0.0767,0.077,0.0786,0.0784,0.077,0.0798,0.0799,0.0844,0.0771,0.0828,0.0831,0.0834,0.0952,0.0964,0.0974,0,0,0,0,0,0.0592,0.0612,0.0622,0.063,0.0682,0.0728,0.0737,0.0763,0.0769,0.0799,0.0808,0.0785,0.0816,0.08,0.08,0.0847,0.0827,0.083,0.0833,0.0947,0.0961,0.0974,0,0,0,0,0,0,0.0581,0.0618,0.063,0.066,0.07,0.0734,0.0769,0.0781,0.0815,0.0828,0.0808,0.0808,0.0843,0.0827,0.0809,0.087,0.0816,0.082,0.0902,0.0916,0.0927,0.0907,0.0772,0,0,0,0,0,0.0585,0.0614,0.065,0.0679,0.0707,0.0744,0.0769,0.0793,0.082,0.0837,0.0841,0.0847,0.0854,0.0871,0.0867,0.0911,0.0896,0.0937,0.0949,0.0959,0.0942,0.0968,0.098,0.0846,0.0846,0.0846,0,0,0.059,0.0613,0.063,0.0679,0.072,0.0765,0.0761,0.0821,0.0854,0.0829,0.0882,0.0882,0.0869,0.0913,0.0929,0.0912,0.0998,0.0963,0.0972,0.0948,0.0973,0.0986,0.0997,0.0848,0.0848,0.0848,0,0,0.0611,0.0642,0.0676,0.0716,0.0778,0.0803,0.0825,0.0879,0.0905,0.0951,0.0939,0.0956,0.0985,0.098,0.098,0.1046,0.1045,0.1071,0.1132,0.116,0.1171,0.118,0.1219,0.123,0.1093,0.1093,0.1093,0,0.0614,0.066,0.0695,0.0742,0.0775,0.0822,0.087,0.0909,0.0959,0.0981,0.0979,0.1017,0.1001,0.1043,0.1073,0.1069,0.1105,0.1088,0.1176,0.1185,0.1192,0.1228,0.124,0.1099,0.1098,0.1098,0.1097,0,0.0657,0.0707,0.0739,0.0808,0.0848,0.0906,0.0955,0.1001,0.1033,0.1061,0.1113,0.1106,0.1124,0.1139,0.1129,0.1192,0.1209,0.1179,0.1145,0.1214,0.1247,0.1257,0.1108,0.1106,0.1104,0.1103,0,0,0.0634,0.0745,0.0759,0.0803,0.089,0.0926,0.0992,0.1056,0.1098,0.1151,0.1197,0.1217,0.1231,0.1228,0.1234,0.1264,0.1354,0.1272,0.127,0.1315,0.1461,0.1399,0.1403,0.1378,0.1379,0.138,0.1478,0,0.0662,0.0747,0.0795,0.0883,0.0935,0.0994,0.1041,0.1104,0.1155,0.1214,0.1235,0.1276,0.1267,0.1294,0.1329,0.1334,0.1382,0.1332,0.138,0.138,0.1321,0.1411,0.1385,0.1485,0.1487,0.1488,0.1489,0,0.0675,0.0739,0.082,0.0918,0.0947,0.1004,0.1087,0.114,0.1228,0.1268,0.1331,0.1354,0.1409,0.138,0.1451,0.1444,0.1464,0.1467,0.147,0.1363,0.1334,0.139,0.1506,0.1505,0.1504,0.1502,0.1501,0,0.0624,0.0745,0.0805,0.0845,0.0965,0.1012,0.1077,0.1163,0.1218,0.1315,0.1369,0.1432,0.1481,0.151,0.1535,0.1517,0.1612,0.1569,0.1533,0.153,0.15,0.1488,0.1615,0.1615,0.1614,0.1614,0.1614,0,0.0615,0.0671,0.0796,0.0842,0.0919,0.1003,0.1087,0.1156,0.1261,0.133,0.1407,0.1466,0.1526,0.1589,0.1584,0.1605,0.1656,0.1551,0.1551,0.1555,0.1548,0.151,0.1496,0.1618,0.1617,0.1616,0.1616,0,0.0547,0.0634,0.0711,0.0851,0.0902,0.0954,0.1107,0.1161,0.1274,0.1367,0.1406,0.1533,0.1613,0.1664,0.1714,0.1669,0.1671,0.1666,0.1702,0.17,0.156,0.1552,0.1621,0.162,0.1618,0.1617,0.1617,0,0.0522,0.0552,0.0698,0.0758,0.0837,0.0942,0.101,0.1147,0.1215,0.1387,0.1427,0.1564,0.1629,0.1675,0.1713,0.1729,0.1701,0.1698,0.1587,0.1569,0.1562,0.1555,0.1549,0.1615,0.1614,0.1614,0.1614,0,0.0458,0.0502,0.0566,0.0702,0.0796,0.0887,0.1014,0.1066,0.1212,0.1319,0.1427,0.1483,0.1591,0.1636,0.1689,0.1676,0.1684,0.1685,0.1685,0.1581,0.1562,0.1555,0.155,0.161,0.161,0.1611,0.1611,0,0.0392,0.0405,0.0501,0.0616,0.0733,0.0828,0.0902,0.1018,0.1107,0.1304,0.133,0.1468,0.1581,0.1612,0.1639,0.1651,0.1604,0.1525,0.1533,0.1538,0.1462,0.1422,0.144,0,0,0,0,0,0.0323,0.0338,0.0426,0.0547,0.0669,0.0743,0.0902,0.0977,0.1122,0.117,0.1258,0.1343,0.1423,0.1495,0.1489,0.1583,0.1597,0.1567,0.1506,0.1587,0.1592,0.1508,0,0,0,0,0,0,0.0276,0.0323,0.0378,0.048,0.055,0.0666,0.0762,0.0863,0.092,0.107,0.1135,0.1233,0.1341,0.1395,0.1444,0.1464,0.1397,0.165,0.1646,0.1584,0.1589,0.1592,0.1508,0,0,0,0,0]},{"header":{"parameterUnit":"m.s-1","parameterCategory":2,"la1":30.2991,"la2":30.254,"lo1":-89.0895,"lo2":-89.0444,"dy":0.0017,"dx":0.0017,"nx":28,"ny":28,"refTime":"2024-09-24T21:00:00:Z","depth":"4","parameterNumber":3,"parameterNumberName":"V-component_of_CURRENTS"},"data":[0,0,0,0,0,0,0,0,0,0,0,0,0,0,0,0,0,0,0,0,0,0,0,0,0,0,0,0,0,0,0,0,0,0,0,0,0,0,0,0,0,0,0,0,0,0,0,0,0,0,0,0,0,0,0,0,0,0,0.0396,0.0396,0,0.0366,0.0365,0.0365,0.038,0.0381,0.0381,0.0382,0.0331,0.0329,0.0327,0,0,0,0,0,0,0,0,0,0,0,0,0,0.042,0.042,0.0396,0.0396,0.0395,0.0366,0.0365,0.0365,0.038,0.0381,0.0381,0.0382,0.0332,0.0329,0.0327,0,0,0,0,0,0,0,0,0,0,0,0,0,0.0403,0.042,0.0396,0.0398,0.0398,0.0366,0.0365,0.0365,0.038,0.0381,0.0382,0.0383,0.0332,0.0329,0.0326,0.0287,0,0,0.0317,0.0316,0,0,0,0,0,0,0,0,0.0404,0.0402,0.0399,0.0398,0.0398,0.0377,0.0355,0.0337,0.0379,0.0388,0.0382,0.0383,0.0343,0.0339,0.0333,0.0284,0.0282,0.0317,0.0315,0.0314,0.0313,0,0,0,0,0,0,0,0.0405,0.0403,0.0385,0.0398,0.0398,0.0385,0.0384,0.0352,0.036,0.0387,0.0388,0.0382,0.0343,0.0336,0.0332,0.0281,0.0317,0.0314,0.0313,0.0311,0.0201,0.02,0,0,0,0,0,0,0.0408,0.0404,0.0386,0.0384,0.0402,0.0383,0.0383,0.0383,0.0361,0.0358,0.0382,0.0383,0.034,0.0335,0.033,0.0297,0.0314,0.0311,0.0309,0.0203,0.0201,0.02,0,0,0,0,0,0,0.0409,0.0407,0.0387,0.0392,0.0389,0.0382,0.0383,0.0382,0.0376,0.0357,0.0355,0.0376,0.0341,0.0334,0.031,0.0295,0.031,0.0307,0.0204,0.0202,0.0201,0.0222,0,0,0,0,0,0,0.041,0.0408,0.0412,0.0393,0.0389,0.0363,0.0381,0.0381,0.0371,0.0373,0.0351,0.0348,0.0341,0.0314,0.0307,0.0291,0.0305,0.0205,0.0203,0.0201,0.0223,0.0222,0.022,0,0,0,0,0,0.0411,0.0414,0.0413,0.041,0.0394,0.0362,0.0359,0.0358,0.0369,0.0358,0.0356,0.0348,0.0295,0.0311,0.0302,0.0286,0.0206,0.0204,0.0201,0.0224,0.0222,0.022,0,0,0,0,0,0,0.043,0.0415,0.0413,0.0413,0.0386,0.0365,0.0357,0.0353,0.0342,0.0346,0.0338,0.0333,0.0306,0.0286,0.0304,0.0245,0.0247,0.0243,0.0267,0.0265,0.0264,0.0268,0.0302,0,0,0,0,0,0.0434,0.0434,0.0407,0.0405,0.039,0.0371,0.0361,0.0353,0.0338,0.0335,0.0322,0.0304,0.0286,0.0271,0.0248,0.0213,0.019,0.0193,0.0192,0.0191,0.0186,0.0142,0.0137,0.0192,0.0192,0.0192,0,0,0.0443,0.0433,0.0435,0.0409,0.039,0.0367,0.0368,0.0343,0.0331,0.0328,0.0311,0.0298,0.0276,0.0248,0.0232,0.0231,0.0163,0.0188,0.0188,0.0183,0.0139,0.0133,0.0129,0.019,0.019,0.0191,0,0,0.0443,0.0445,0.0434,0.0411,0.0376,0.0363,0.0354,0.0323,0.0317,0.0291,0.0294,0.0272,0.0236,0.0223,0.0211,0.018,0.0161,0.0169,0.0164,0.0121,0.0116,0.0112,0.0084,0.0077,0.0166,0.0166,0.0166,0,0.0453,0.0441,0.0424,0.0398,0.0392,0.0361,0.0345,0.0322,0.0291,0.0291,0.0286,0.0246,0.0223,0.0201,0.0193,0.0178,0.0158,0.0179,0.0121,0.0116,0.0112,0.0083,0.0075,0.0167,0.0167,0.0166,0.0166,0,0.0439,0.0427,0.0415,0.0385,0.037,0.035,0.0318,0.0303,0.0295,0.0279,0.0254,0.0222,0.0205,0.0185,0.018,0.0138,0.0137,0.0131,0.0132,0.0108,0.0079,0.007,0.0168,0.0167,0.0167,0.0167,0,0,0.0461,0.0418,0.0414,0.0409,0.0368,0.0359,0.0336,0.0315,0.0322,0.027,0.0273,0.0218,0.0208,0.0192,0.0175,0.0127,0.0076,0.0115,0.0113,0.0099,-0.0009,-0.0016,-0.0027,0.0064,0.0063,0.0061,-0.0012,0,0.0454,0.0431,0.0411,0.0395,0.0382,0.0364,0.0356,0.0336,0.0321,0.031,0.026,0.0248,0.0207,0.0209,0.0151,0.0106,0.0053,0.0097,0.0005,0.0003,0.0008,-0.0037,0.0056,-0.0019,-0.0021,-0.0022,-0.0023,0,0.0443,0.0433,0.0428,0.0421,0.0417,0.0409,0.0424,0.0409,0.038,0.0368,0.0332,0.0303,0.0238,0.0205,0.0085,0.0119,0.005,-0.0001,-0.0005,-0.0027,-0.0022,0.0005,-0.0039,-0.0038,-0.0037,-0.0036,-0.0035,0,0.0483,0.0449,0.0463,0.0456,0.0437,0.0448,0.0445,0.0432,0.0437,0.0408,0.0408,0.033,0.0297,0.0193,0.0079,0.0085,-0.0056,-0.0057,-0.0134,-0.0135,-0.0111,-0.0106,-0.0161,-0.0161,-0.0161,-0.016,-0.016,0,0.0489,0.0493,0.0483,0.049,0.0511,0.049,0.0518,0.0505,0.0498,0.05,0.0441,0.0418,0.0288,0.0198,0.009,-0.0051,-0.0053,-0.0149,-0.0164,-0.01,-0.0093,-0.0117,-0.0111,-0.0163,-0.0163,-0.0162,-0.0162,0,0.0512,0.0508,0.0523,0.0527,0.0527,0.0547,0.0558,0.0573,0.0563,0.0564,0.0556,0.0477,0.0355,0.0224,0.0059,-0.0031,-0.0161,-0.0213,-0.013,-0.0136,-0.0211,-0.0203,-0.0301,-0.0302,-0.0303,-0.0304,-0.0305,0,0.0513,0.0526,0.0561,0.0574,0.0572,0.0592,0.0603,0.0603,0.0615,0.059,0.0585,0.0488,0.0414,0.0183,0.0038,-0.0163,-0.0198,-0.0258,-0.0253,-0.0226,-0.023,-0.0221,-0.0212,-0.0306,-0.0306,-0.0307,-0.0307,0,0.0513,0.0546,0.0567,0.0599,0.0619,0.0642,0.0654,0.0669,0.0663,0.0664,0.0602,0.0487,0.0349,0.0176,0.002,-0.0128,-0.0212,-0.0268,-0.0267,-0.0263,-0.0233,-0.0234,-0.0224,-0.031,-0.031,-0.0309,-0.0309,0,0.052,0.054,0.0578,0.0603,0.0635,0.0656,0.0676,0.0667,0.0676,0.065,0.0623,0.0482,0.0404,0.0192,0.0044,-0.0096,-0.0134,-0.0177,-0.0182,-0.018,-0.0127,-0.0069,-0.0122,0,0,0,0,0,0.0501,0.052,0.0559,0.0589,0.0631,0.0648,0.0682,0.0699,0.0701,0.0662,0.0646,0.0516,0.0298,0.0206,0.0063,0.0017,-0.0163,-0.0156,-0.0215,-0.0328,-0.0324,-0.0283,0,0,0,0,0,0,0.0486,0.0523,0.0548,0.0568,0.0588,0.0625,0.0655,0.0668,0.0648,0.0637,0.0526,0.0477,0.0269,0.0378,0.0058,0.0016,-0.0043,-0.0253,-0.0256,-0.033,-0.0327,-0.0324,-0.028,0,0,0,0,0]}]]